| time (UTC) | temp F | wind direction | speed MPH | gust MPH | rain 1hr in | rain 24hr in | rain mn in | humidity % | barometer mb |
| 20260505090050 | 70 | 234 | 6.0 | 8.0 | 0.00 | 0.00 | 0.00 | 64 | 1013.9 |
| 20260505085050 | 70 | 219 | 7.0 | 10.0 | 0.00 | 0.00 | 0.00 | 63 | 1013.7 |
| 20260505084024 | 70 | 217 | 7.0 | 10.0 | 0.00 | 0.00 | 0.00 | 62 | 1013.6 |
| 20260505083022 | 70 | 222 | 6.0 | 9.0 | 0.00 | 0.00 | 0.00 | 62 | 1013.6 |
| 20260505082023 | 71 | 209 | 8.0 | 10.0 | 0.00 | 0.00 | 0.00 | 64 | 1013.6 |
| 20260505081026 | 71 | 213 | 6.0 | 9.0 | 0.00 | 0.00 | 0.00 | 63 | 1013.6 |
| 20260505075023 | 71 | 207 | 7.0 | 9.0 | 0.00 | 0.00 | 0.00 | 61 | 1013.8 |
| 20260505074023 | 71 | 203 | 9.0 | 11.0 | 0.00 | 0.00 | 0.00 | 62 | 1013.8 |
| 20260505073024 | 71 | 197 | 7.0 | 10.0 | 0.00 | 0.00 | 0.00 | 62 | 1013.8 |
| 20260505072024 | 70 | 227 | 4.0 | 8.0 | 0.00 | 0.00 | 0.00 | 61 | 1013.9 |
| 20260505071024 | 71 | 212 | 6.0 | 9.0 | 0.00 | 0.00 | 0.00 | 61 | 1014.0 |
| 20260505070024 | 71 | 219 | 5.0 | 8.0 | 0.00 | 0.00 | 0.00 | 61 | 1014.1 |
| 20260505065049 | 71 | 213 | 8.0 | 11.0 | 0.00 | 0.00 | 0.00 | 62 | 1014.3 |
| 20260505064024 | 71 | 210 | 8.0 | 11.0 | 0.00 | 0.00 | 0.00 | 60 | 1014.5 |
| 20260505063025 | 71 | 207 | 7.0 | 9.0 | 0.00 | 0.00 | 0.00 | 61 | 1014.7 |
| 20260505062024 | 71 | 220 | 7.0 | 12.0 | 0.00 | 0.00 | 0.00 | 63 | 1014.7 |
| 20260505061024 | 71 | 207 | 7.0 | 9.0 | 0.00 | 0.00 | 0.00 | 63 | 1014.8 |
| 20260505060022 | 71 | 225 | 5.0 | 9.0 | 0.00 | 0.00 | 0.00 | 63 | 1014.9 |
| 20260505055022 | 71 | 208 | 8.0 | 10.0 | 0.00 | 0.00 | 0.00 | 63 | 1015.0 |
| 20260505054035 | 71 | 222 | 8.0 | 11.0 | 0.00 | 0.00 | 0.00 | 63 | 1015.2 |
| 20260505053025 | 71 | 204 | 7.0 | 9.0 | 0.00 | 0.00 | 0.00 | 62 | 1015.3 |
| 20260505052022 | 71 | 215 | 8.0 | 10.0 | 0.00 | 0.00 | 0.00 | 61 | 1015.2 |
| 20260505051022 | 71 | 193 | 6.0 | 10.0 | 0.00 | 0.00 | 0.00 | 64 | 1015.1 |
| 20260505041024 | 70 | 253 | 4.0 | 6.0 | 0.00 | 0.00 | 0.00 | 63 | 1015.5 |
| 20260505040024 | 71 | 221 | 5.0 | 9.0 | 0.00 | 0.00 | 0.00 | 64 | 1015.5 |
| 20260505035024 | 71 | 237 | 5.0 | 8.0 | 0.00 | 0.00 | 0.00 | 64 | 1015.4 |
| 20260505034024 | 71 | 212 | 7.0 | 9.0 | 0.00 | 0.00 | 0.00 | 64 | 1015.3 |
| 20260505033023 | 71 | 213 | 7.0 | 9.0 | 0.00 | 0.00 | 0.00 | 65 | 1015.4 |
| 20260505032025 | 71 | 224 | 6.0 | 10.0 | 0.00 | 0.00 | 0.00 | 65 | 1015.6 |
| 20260505031025 | 71 | 208 | 8.0 | 10.0 | 0.00 | 0.00 | 0.00 | 65 | 1015.5 |
| 20260505030120 | 71 | 214 | 7.0 | 10.0 | 0.00 | 0.00 | 0.00 | 64 | 1015.4 |
| 20260505025050 | 71 | 210 | 8.0 | 10.0 | 0.00 | 0.00 | 0.00 | 63 | 1015.3 |
| 20260505024022 | 71 | 199 | 8.0 | 11.0 | 0.00 | 0.00 | 0.00 | 65 | 1015.3 |
| 20260505023022 | 71 | 206 | 8.0 | 10.0 | 0.00 | 0.00 | 0.00 | 63 | 1015.2 |
| 20260505022050 | 71 | 211 | 8.0 | 11.0 | 0.00 | 0.00 | 0.00 | 65 | 1015.2 |
| 20260505021025 | 71 | 209 | 7.0 | 10.0 | 0.00 | 0.00 | 0.00 | 64 | 1015.2 |
| 20260505020022 | 71 | 215 | 6.0 | 9.0 | 0.00 | 0.00 | 0.00 | 64 | 1015.4 |
| 20260505015023 | 71 | 216 | 7.0 | 10.0 | 0.00 | 0.00 | 0.00 | 64 | 1015.4 |
| 20260505014023 | 71 | 210 | 8.0 | 11.0 | 0.00 | 0.00 | 0.00 | 64 | 1015.4 |
| 20260505013026 | 71 | 230 | 5.0 | 10.0 | 0.00 | 0.00 | 0.00 | 64 | 1015.6 |
| 20260505012023 | 71 | 241 | 5.0 | 9.0 | 0.00 | 0.00 | 0.00 | 65 | 1015.7 |
| 20260505011023 | 72 | 207 | 8.0 | 10.0 | 0.00 | 0.00 | 0.00 | 64 | 1015.5 |
| 20260505010023 | 72 | 213 | 9.0 | 11.0 | 0.00 | 0.00 | 0.00 | 62 | 1015.6 |
| 20260505005023 | 72 | 212 | 8.0 | 9.0 | 0.00 | 0.00 | 0.00 | 62 | 1015.7 |
| 20260505004049 | 72 | 209 | 8.0 | 10.0 | 0.00 | 0.00 | 0.00 | 62 | 1015.6 |
| 20260505003049 | 72 | 235 | 6.0 | 9.0 | 0.00 | 0.00 | 0.00 | 61 | 1015.5 |
| 20260505002024 | 72 | 216 | 7.0 | 10.0 | 0.00 | 0.00 | 0.00 | 60 | 1015.6 |
| 20260505001024 | 72 | 193 | 8.0 | 11.0 | 0.00 | 0.00 | 0.00 | 60 | 1015.7 |
| 20260505000024 | 72 | 206 | 7.0 | 10.0 | 0.00 | 0.00 | 0.00 | 61 | 1015.7 |
| 20260504235024 | 72 | 186 | 7.0 | 9.0 | 0.00 | 0.00 | 0.00 | 60 | 1015.9 |
| 20260504234050 | 72 | 216 | 5.0 | 8.0 | 0.00 | 0.00 | 0.00 | 58 | 1016.0 |
| 20260504233050 | 72 | 184 | 6.0 | 9.0 | 0.00 | 0.00 | 0.00 | 58 | 1015.9 |
| 20260504232024 | 72 | 191 | 5.0 | 7.0 | 0.00 | 0.00 | 0.00 | 57 | 1015.7 |
| 20260504231025 | 72 | 177 | 6.0 | 9.0 | 0.00 | 0.00 | 0.00 | 57 | 1015.7 |
| 20260504230022 | 72 | 200 | 7.0 | 9.0 | 0.00 | 0.00 | 0.00 | 58 | 1016.0 |
| 20260504225025 | 72 | 186 | 5.0 | 6.0 | 0.00 | 0.00 | 0.00 | 58 | 1016.0 |
| 20260504224025 | 72 | 181 | 6.0 | 9.0 | 0.00 | 0.00 | 0.00 | 58 | 1015.9 |
| 20260504223022 | 72 | 183 | 6.0 | 8.0 | 0.00 | 0.00 | 0.00 | 58 | 1015.9 |
| 20260504222023 | 72 | 177 | 6.0 | 8.0 | 0.00 | 0.00 | 0.00 | 58 | 1016.0 |
| 20260504221048 | 71 | 193 | 5.0 | 8.0 | 0.00 | 0.00 | 0.00 | 57 | 1016.1 |
| 20260504220026 | 71 | 185 | 6.0 | 10.0 | 0.00 | 0.00 | 0.00 | 58 | 1015.9 |
| 20260504215048 | 71 | 181 | 6.0 | 9.0 | 0.00 | 0.00 | 0.00 | 56 | 1016.0 |
| 20260504214023 | 71 | 178 | 5.0 | 8.0 | 0.00 | 0.00 | 0.00 | 56 | 1016.0 |
| 20260504213059 | 72 | 181 | 6.0 | 9.0 | 0.00 | 0.00 | 0.00 | 56 | 1016.0 |
| 20260504212023 | 71 | 172 | 7.0 | 9.0 | 0.00 | 0.00 | 0.00 | 56 | 1016.1 |
| 20260504211023 | 72 | 173 | 6.0 | 9.0 | 0.00 | 0.00 | 0.00 | 54 | 1016.2 |
| 20260504210034 | 71 | 190 | 6.0 | 9.0 | 0.00 | 0.00 | 0.00 | 56 | 1016.2 |
| 20260504205024 | 71 | 165 | 6.0 | 8.0 | 0.00 | 0.00 | 0.00 | 54 | 1016.1 |
| 20260504204024 | 71 | 151 | 7.0 | 9.0 | 0.00 | 0.00 | 0.00 | 55 | 1016.3 |
| 20260504203024 | 71 | 162 | 4.0 | 8.0 | 0.00 | 0.00 | 0.00 | 55 | 1016.3 |
| 20260504202059 | 71 | 147 | 6.0 | 9.0 | 0.00 | 0.00 | 0.00 | 55 | 1016.4 |
| 20260504201025 | 71 | 143 | 7.0 | 10.0 | 0.00 | 0.00 | 0.00 | 55 | 1016.4 |
| 20260504200024 | 71 | 161 | 6.0 | 8.0 | 0.00 | 0.00 | 0.00 | 54 | 1016.6 |
| 20260504195024 | 71 | 152 | 6.0 | 10.0 | 0.00 | 0.00 | 0.00 | 54 | 1016.8 |
| 20260504194025 | 71 | 144 | 5.0 | 8.0 | 0.00 | 0.00 | 0.00 | 51 | 1016.9 |
| 20260504193025 | 71 | 157 | 4.0 | 7.0 | 0.00 | 0.00 | 0.00 | 52 | 1017.0 |
| 20260504192022 | 71 | 143 | 5.0 | 6.0 | 0.00 | 0.00 | 0.00 | 52 | 1017.1 |
| 20260504191022 | 71 | 141 | 3.0 | 6.0 | 0.00 | 0.00 | 0.00 | 51 | 1017.2 |
| 20260504190025 | 71 | 125 | 4.0 | 6.0 | 0.00 | 0.00 | 0.00 | 51 | 1017.4 |
| 20260504185025 | 71 | 132 | 4.0 | 7.0 | 0.00 | 0.00 | 0.00 | 51 | 1017.4 |
| 20260504184023 | 71 | 140 | 5.0 | 9.0 | 0.00 | 0.00 | 0.00 | 51 | 1017.5 |
| 20260504183023 | 71 | 150 | 3.0 | 6.0 | 0.00 | 0.00 | 0.00 | 49 | 1017.7 |
| 20260504182113 | 71 | 129 | 3.0 | 6.0 | 0.00 | 0.00 | 0.00 | 48 | 1017.6 |
| 20260504181026 | 71 | 121 | 4.0 | 5.0 | 0.00 | 0.00 | 0.00 | 48 | 1017.8 |
| 20260504180034 | 71 | 125 | 5.0 | 7.0 | 0.00 | 0.00 | 0.00 | 49 | 1017.8 |
| 20260504175035 | 70 | 120 | 6.0 | 8.0 | 0.00 | 0.00 | 0.00 | 49 | 1017.8 |
| 20260504174023 | 70 | 103 | 6.0 | 9.0 | 0.00 | 0.00 | 0.00 | 50 | 1017.9 |
| 20260504173023 | 70 | 115 | 5.0 | 7.0 | 0.00 | 0.00 | 0.00 | 49 | 1018.1 |
| 20260504172023 | 70 | 150 | 5.0 | 7.0 | 0.00 | 0.00 | 0.00 | 53 | 1018.1 |
| 20260504171049 | 70 | 153 | 5.0 | 7.0 | 0.00 | 0.00 | 0.00 | 52 | 1018.2 |
| 20260504170114 | 70 | 133 | 6.0 | 8.0 | 0.00 | 0.00 | 0.00 | 56 | 1018.3 |
| 20260504151022 | 69 | 117 | 7.0 | 9.0 | 0.00 | 0.01 | 0.00 | 58 | 1018.9 |
| 20260504141048 | 69 | 116 | 5.0 | 7.0 | 0.00 | 0.01 | 0.00 | 49 | 1018.9 |